Location: Bratsk-Energetik
(56.3300°N, 101.7600°E)
Time: 23:42:22
(UTC+08:00)

ISS - Pass Details

Date: 14 May 2021
Orbit: 417 x 422 km, 51.6° (Epoch: 13 June)

Event Time Altitude Azimuth Distance (km) Brightness Sun altitude
Exits shadow 01:06:23 31° 152° (SSE) 759 -3.0 -15.1°
Drops below altitude 10° 01:09:01 10° 104° (ESE) 1,508 -1.1 -15.1°
Sets 01:11:14 0° 94° (E) 2,374 0.0 -15.1°
